Погода в Козловке

Россия / Воронежская область     50°51′43″N   40°27′31″E
темп.,
°C
ветер,
м/с
пор.,
м/с
влажн.,
%
обл.,
%
осадки,
мм/ч
давл.,
гПа
погр.,
м
8 августа, пн
пн800:00+21вюв33375 0.0 101739
03:00+20в334312 0.0 101736
06:00+19св22476 0.0 101819
09:00+27всв333332 0.0 1018395
12:00+31св3325100 0.0 10182046
15:00+32с232223 0.0 10173288
18:00+30сз33324 0.0 101780
21:00+24св353512 0.0 101860
9 августа, вт
вт900:00+22св33428 0.0 101834
03:00+20ююв334015 0.0 101833
06:00+20ююз23468 0.0 101928
09:00+27юз223319 0.0 1019351
12:00+31ю232514 0.0 10181431
15:00+32зсз23225 0.0 10173327
18:00+30ссз46346 0.0 1016178
21:00+23ссв334869 0.0 101742
10 августа, ср
ср1000:00+21св22475 0.0 101719
03:00+20всв22475 0.0 101725
06:00+19св355427 0.0 101771
09:00+26св334256 0.0 1017463
12:00+31всв222993 0.0 10161362
15:00+33св2324100 0.0 10142974
18:00+30ссв3433100 0.0 101470
21:00+26св6134399 0.0 1015325
11 августа, чт
чт1100:00+26в7144599 0.0 1016459
03:00+24в6124618 0.0 1015276
06:00+24св4848100 0.0 1016175
09:00+23св5106089 0.0 1017405
12:00+31всв673488 0.0 10171699
15:00+30ссв693862 0.0 1016766
18:00+26в71251100 0.1 1017727
21:00+22всв4963100 0.3 1018145
12 августа, пт
пт1200:00+22всв5136896 0.0 1019364
03:00+21всв5137160 0.0 1019346
06:00+21всв51373100 0.0 1019391
09:00+22всв6115793 0.0 1020478
12:00+31в7934100 0.0 10201291
15:00+33в7830100 0.0 10182106
18:00+30в6113697 0.0 1018483
21:00+22ссз2261100 0.3 102019